Flag for Germany Weather past 2 weeks in Hamburg, Hamburg, Germany

Now
61 °F

Fog.


Feels Like: 61 °F
Forecast: 49 / 70 °F
Wind: 7 mph from Northeast

Location: Hamburg-Fuhlsbuettel

Current Time: Sep 2, 2014 at 2:55:51 AM

Latest Report: Sep 2, 2014 at 2:20 AM


Visibility: 2 mi

Pressure: 30.09 "Hg

Humidity: 100%

Dew point: 61 °F

Location of HamburgLocation

Historic Weather in Hamburg — Graph

°F

Hamburg temperature yesterday

Maximum temperature yesterday: 66 °F (at 5:20 PM)
Minimum temperature yesterday: 48 °F (at 2:20 AM)
Average temperature yesterday: 59 °F

Past Weeks' High & Low Weather Summary

 TemperatureHumidityPressure
High73 °F (Aug 28, 2:20 PM)100% (Aug 19, 1:20 AM)30.09 "Hg (Aug 19, 1:20 AM)
Low39 °F (Aug 26, 4:50 AM)33% (Aug 28, 2:50 PM)29.47 "Hg (Aug 18, 10:20 AM)
Average57 °F82%29.87 "Hg
* Reported Aug 18 1:20 AM — Sep 2 1:20 AM, Hamburg, Weather by CustomWeather, © 2014

Note: Actual official high and low records may vary slightly from our data, if they occured in-between our weather recording intervals... More about our weather records

Advertising

Hamburg weather history for previous 24 hours

 ConditionsComfort  
Time TempWeatherWind HumidityBarometerVisibility
1:20 AM
Sep 2
61 °FDrizzle. Fog.6 mph100%30.09 "Hg2 mi
12:50 AM61 °FFog.6 mph100%30.09 "Hg3 mi
12:20 AM61 °FFog.3 mph100%30.09 "Hg3 mi
11:50 PM
Sep 1
61 °FFog.5 mph100%30.09 "Hg3 mi
11:20 PM61 °FPassing clouds.3 mph100%30.07 "Hg4 mi
10:20 PM61 °FPassing clouds.2 mph100%30.07 "Hg5 mi
9:50 PM61 °FPassing clouds.2 mph100%30.07 "HgN/A
9:20 PM61 °FScattered showers. Passing clouds.3 mph100%30.07 "Hg5 mi
8:50 PM61 °FRain showers. Broken clouds.5 mph100%30.07 "Hg3 mi
8:20 PM61 °FRain showers. Partly sunny.12 mph94%30.07 "Hg4 mi
7:50 PM64 °FPartly sunny.7 mph88%30.04 "HgN/A
7:20 PM64 °FBroken clouds.6 mph88%30.04 "HgN/A
6:50 PM64 °FBroken clouds.6 mph88%30.04 "HgN/A
6:20 PM66 °FBroken clouds.8 mph83%30.04 "HgN/A
5:50 PM64 °FBroken clouds.8 mph88%30.04 "HgN/A
5:20 PM66 °FPartly sunny.7 mph83%30.04 "HgN/A
4:50 PM64 °FPartly sunny.8 mph88%30.04 "HgN/A
4:20 PM64 °FPartly sunny.5 mph88%30.04 "HgN/A
3:50 PM64 °FPartly sunny.6 mph88%30.04 "HgN/A
3:20 PM63 °FPartly sunny.6 mph94%30.07 "HgN/A
2:50 PM61 °FPartly sunny.6 mph100%30.07 "HgN/A
2:20 PM63 °FPartly sunny.5 mph94%30.07 "HgN/A
1:50 PM61 °FPartly sunny.6 mph100%30.04 "Hg4 mi
1:20 PM61 °FDrizzle. Fog.5 mph94%30.04 "Hg3 mi
12:50 PM61 °FDrizzle. Partly sunny.5 mph94%30.04 "Hg2 mi
12:20 PM59 °FDrizzle. Partly sunny.5 mph100%30.04 "Hg2 mi
11:50 AM61 °FDrizzle. Partly sunny.6 mph94%30.04 "Hg3 mi
11:20 AM59 °FDrizzle. Partly sunny.6 mph100%30.04 "Hg4 mi
10:50 AM59 °FPartly sunny.6 mph100%30.04 "Hg4 mi
10:20 AM59 °FFog.7 mph100%30.04 "Hg2 mi
9:50 AM57 °FFog.8 mph100%30.01 "Hg2 mi
9:20 AM57 °FFog.7 mph100%30.01 "Hg2 mi
8:50 AM57 °FFog.7 mph100%30.01 "Hg1 mi
8:20 AM57 °FFog.8 mph100%30.01 "Hg1 mi
7:50 AM57 °FFog.6 mph100%30.01 "Hg1 mi
7:20 AM57 °FFog.7 mph100%30.01 "Hg1 mi
6:50 AM55 °FFog.6 mph100%30.01 "Hg1 mi
6:20 AM55 °FFog.5 mph100%30.01 "Hg1 mi
5:50 AM55 °FFog.3 mph100%29.98 "Hg1 mi
5:20 AM54 °FFog.3 mph100%29.98 "Hg1 mi
4:50 AM54 °FFog.3 mph100%29.98 "Hg1 mi
4:20 AM54 °FFog.5 mph100%29.98 "Hg1 mi
3:50 AM54 °FFog.5 mph100%29.98 "Hg1 mi
3:20 AM52 °FFog.2 mph100%29.98 "Hg1 mi
2:50 AM52 °FFog.2 mph100%29.98 "Hg1 mi
2:20 AM48 °FFog.1 mph100%29.98 "Hg1 mi
Weather by CustomWeather, © 2014

See weather overviewHow to use our weather pages